Погода в Льгово

Россия / Костромская область     57°43′45″N   43°16′57″E
темп.,
°C
ветер,
м/с
пор.,
м/с
влажн.,
%
обл.,
%
осадки,
мм/ч
давл.,
гПа
погр.,
м
17 апреля, сб
сб1700:00+4всв311845 0.0 1029310
03:00+2всв310865 0.0 1029246
06:00+2всв311795 0.0 1029279
09:00+7всв59555 0.0 1029591
12:00+11всв46415 0.0 10291102
15:00+12всв46400 0.0 10281276
18:00+10всв37530 0.0 1027453
21:00+5всв39760 0.0 1028186
18 апреля, вс
вс1800:00+3св29800 0.0 1027178
03:00+2св29874 0.0 1028173
06:00+2св39878 0.0 1028233
09:00+8всв475897 0.0 1027599
12:00+11всв574997 0.0 10271338
15:00+12всв574799 0.0 10271788
18:00+8всв5967100 0.0 1028853
21:00+5всв4107699 0.0 1029681
19 апреля, пн
пн1900:00+4всв41068100 0.0 1030597
03:00+2всв41064100 0.0 1030467
06:00+1всв4116964 0.0 1031510
09:00+5в58500 0.0 1032950
12:00+8в68385 0.0 10311728
15:00+9в57325 0.0 10311874
18:00+7в58390 0.0 10311457
21:00+3в412542 0.0 1031442
20 апреля, вт
вт2000:00+1в412610 0.0 1031424
03:000в412660 0.0 1031376
06:000в4135917 0.0 1031495
09:00+6вюв610445 0.0 1030888
12:00+10вюв69405 0.0 10281505
15:00+11вюв69375 0.0 10261673
18:00+9вюв51144100 0.0 10241429
21:00+7вюв61348100 0.0 10231018
21 апреля, ср
ср2100:00+5вюв61551100 0.0 1020928
03:00+5вюв71657100 0.0 1018884
06:00+4вюв71772100 0.9 1015862
09:00+3юв71688100 2.8 1014990
12:00+4юв71688100 1.5 1013933
15:00+6юв71788100 1.6 10131062
18:00+6юв71689100 0.3 10131067
21:00+7ююв51292100 0.4 10151011